EHI
0 0 0 1 0 0 1 11 35 60 72 76 74 69 73 74 58 31 11 3 1 0 2 5 7 10 13 12 7 2 0 0 0 0 0 0 0 0 0 0 0 1 1
0 0 1 2 2 1 0 9 37 69 84 86 84 80 78 68 45 21 6 1 0 0 1 2 4 7 11 10 5 1 0 0 0 0 0 0 0 0 0 0 0 0 1
0 0 1 6 8 5 2 7 32 67 88 93 92 87 77 55 27 8 2 0 0 0 0 1 2 6 9 9 5 2 0 0 0 0 0 0 1 2 1 0 0 0 0
0 1 4 11 14 9 3 4 18 44 66 77 78 71 57 35 13 2 0 1 2 3 4 5 5 7 9 10 6 2 0 0 0 0 0 1 7 12 8 2 1 0 0
0 2 6 12 12 6 2 2 7 18 31 40 42 37 27 15 5 0 1 2 5 9 10 10 9 7 8 7 4 1 0 0 0 0 1 4 14 22 15 7 6 3 1
0 1 3 6 6 3 1 1 1 4 7 9 11 9 6 3 1 0 1 4 9 12 13 13 11 7 4 3 1 0 0 0 0 0 1 9 22 25 15 8 8 6 3
0 0 0 1 3 6 6 3 2 3 3 1 2 2 1 0 0 2 3 6 8 11 11 10 8 4 1 0 0 0 0 0 0 0 0 16 36 30 11 4 4 5 4
0 0 0 1 9 20 20 8 4 7 7 3 2 2 1 0 1 3 5 6 7 8 7 5 3 1 0 0 0 0 0 0 0 0 0 16 35 29 8 1 0 1 2
0 0 0 3 18 37 32 14 9 16 15 7 3 2 1 0 1 3 4 6 9 10 6 2 0 0 0 0 0 0 0 0 0 0 0 7 14 12 4 1 0 0 0
0 0 0 3 19 35 30 15 15 26 24 9 2 2 1 0 1 2 5 8 12 12 8 2 0 0 0 0 0 0 0 0 0 0 0 0 0 0 0 0 0 0 0
3 2 1 2 9 18 16 8 12 23 20 7 1 1 1 0 0 2 5 9 11 11 7 2 0 0 0 0 0 0 0 0 0 0 0 1 1 1 0 0 0 0 0
7 4 2 2 3 5 5 2 4 7 7 2 0 0 0 0 0 1 3 4 6 7 4 1 0 0 0 0 0 0 0 0 0 0 0 1 2 1 0 0 0 1 1
5 3 3 4 2 0 0 0 0 0 0 0 0 0 0 0 0 0 0 0 1 2 1 0 0 0 0 0 0 0 0 0 0 0 0 1 1 1 0 0 1 3 4
1 1 2 4 3 1 0 0 0 0 0 0 0 0 0 0 0 0 0 0 0 0 0 0 0 0 0 0 0 0 0 0 0 0 0 0 0 0 0 0 1 3 6
0 0 1 3 5 2 0 0 0 0 0 0 0 0 0 0 0 0 0 0 0 0 0 0 0 0 0 0 0 0 0 0 0 0 0 0 0 0 0 0 0 2 3
0 0 0 2 3 2 0 0 0 0 0 0 0 1 1 1 3 3 1 0 0 0 0 0 0 0 0 0 0 0 0 0 0 0 0 0 0 0 0 0 0 1 2
0 0 0 0 1 1 1 3 6 6 4 1 1 3 4 5 9 8 4 1 0 0 0 0 0 0 0 0 0 0 0 0 0 0 0 0 0 0 0 0 0 0 1
0 0 0 0 1 8 18 27 29 23 10 4 3 4 5 8 10 8 4 2 1 0 0 0 0 0 0 0 0 0 0 0 0 0 0 0 0 0 0 0 0 0 0
0 1 2 5 14 33 54 65 57 33 13 5 3 2 2 4 4 3 2 1 0 0 0 0 0 0 0 0 0 0 0 0 0 0 0 0 0 0 0 0 0 0 0
4 9 15 19 32 52 67 70 54 26 7 2 1 0 0 0 0 0 0 0 0 0 0 0 0 0 0 0 0 0 0 0 0 0 0 0 0 0 0 0 0 0 0
16 28 41 43 41 47 52 45 27 10 2 0 0 0 0 0 0 0 0 0 0 0 0 0 0 0 0 0 0 0 0 0 0 0 0 0 0 0 0 0 0 0 0
39 54 70 68 55 46 39 25 9 1 0 0 0 0 0 0 0 0 0 0 0 0 0 0 0 0 0 0 0 0 0 0 0 0 0 0 0 0 0 0 0 0 0
56 69 79 74 60 44 26 11 3 0 0 0 0 0 0 0 0 0 0 0 0 0 0 0 0 0 0 0 0 0 0 0 0 0 0 0 0 0 0 0 0 0 0
48 59 64 55 39 24 10 2 0 0 0 0 0 0 0 0 0 0 0 0 0 0 0 0 0 0 0 0 0 0 0 0 0 0 0 0 0 0 0 0 0 0 0
32 40 42 30 16 6 2 0 0 0 0 0 0 0 0 0 0 0 0 0 0 0 0 0 0 0 0 0 0 0 0 0 0 0 0 0 0 0 0 0 0 0 0
28 31 29 18 7 2 0 0 0 0 0 0 0 0 0 0 0 0 0 0 0 0 0 0 0 0 0 0 0 0 0 0 0 0 0 0 0 0 0 0 0 0 0
Wind_Speed
9 14 12 14 11 10 10 11 11 12 12 11 11 11 12 12 12 11 9 8 7 7 7 8 8 8 9 9 9 9 8 7 7 6 4 1 1 1 1 2 3 1 9
10 14 12 13 11 10 10 11 12 12 12 12 12 11 12 12 11 10 8 7 6 5 5 6 6 6 8 7 7 7 7 7 7 7 6 5 5 2 1 4 5 0 6
8 12 12 11 12 11 11 11 12 13 13 12 12 12 11 11 9 9 7 5 4 3 3 3 4 5 7 7 7 7 7 7 7 6 7 7 7 5 1 1 3 2 4
9 9 12 12 12 13 13 13 12 13 13 12 12 11 10 9 8 6 5 3 2 3 4 5 6 7 7 6 6 6 5 5 5 6 6 2 4 7 3 3 2 3 4
9 8 11 12 12 12 12 11 11 11 12 11 10 10 9 8 7 5 3 2 3 5 6 7 7 7 6 6 5 5 4 4 4 7 5 7 3 9 5 2 2 1 3
10 9 11 10 13 12 13 13 13 12 11 10 9 8 7 6 6 4 3 3 4 6 7 7 8 8 6 6 5 5 5 5 8 3 3 2 2 7 3 4 7 6 0
9 10 12 9 12 13 13 13 12 12 11 10 9 8 7 6 5 5 4 5 5 6 7 8 8 8 6 5 4 4 4 4 8 4 4 2 7 5 3 5 6 6 4
9 10 11 11 13 13 12 11 12 12 11 9 8 8 8 6 6 5 5 5 4 4 6 6 5 4 4 3 3 3 4 6 6 2 3 3 9 4 4 5 4 4 3
9 9 10 12 13 12 11 11 11 11 10 9 7 8 8 7 6 5 5 4 4 5 5 4 3 3 3 3 4 3 3 5 5 1 2 2 7 4 3 3 2 2 2
7 8 8 9 11 11 11 12 12 11 10 9 8 7 7 7 6 6 5 5 4 5 4 3 3 2 2 1 2 2 4 7 3 1 1 7 6 3 3 3 3 3 3
7 7 8 8 8 8 10 11 11 11 10 9 8 7 7 5 5 6 6 6 4 4 4 3 2 1 3 6 5 4 8 2 1 2 4 7 3 3 3 4 5 5 5
9 8 9 9 9 8 7 8 7 8 7 7 6 6 4 2 1 3 6 4 4 4 4 3 2 5 7 4 5 7 3 2 2 2 6 7 2 3 4 4 5 7 7
7 7 8 7 8 8 7 5 5 5 5 6 6 5 3 3 3 3 3 5 5 5 5 5 5 4 2 4 4 3 3 3 1 1 7 7 1 2 3 4 6 8 9
6 5 7 10 8 7 7 5 5 4 4 5 6 6 5 4 3 2 1 2 2 2 2 3 2 1 4 5 5 4 5 3 2 3 5 8 1 3 4 5 6 6 9
6 4 6 8 8 7 6 5 5 5 5 4 5 5 5 4 3 3 2 1 1 2 3 3 3 3 4 5 5 5 5 5 3 4 1 7 3 4 5 4 5 6 6
5 4 5 7 9 9 7 5 5 4 3 4 5 4 3 3 1 3 2 3 2 3 5 5 5 5 5 5 5 5 5 6 4 4 5 1 6 1 3 4 3 4 5
3 4 4 7 9 9 7 7 6 5 5 4 2 2 1 2 2 2 1 2 3 3 3 2 4 3 4 5 5 5 5 5 5 4 5 5 2 5 5 4 3 2 3
3 4 3 4 8 8 7 7 5 3 1 2 2 4 5 5 3 1 1 3 3 3 3 3 4 5 4 5 5 5 5 5 6 6 8 8 8 7 9 11 8 5 5
3 2 4 4 7 7 5 5 6 4 4 4 4 6 7 7 6 4 5 5 4 4 5 5 4 4 5 6 6 7 6 7 9 9 11 11 11 11 9 7 12 11 9
4 4 4 5 7 7 7 7 7 7 6 6 7 7 8 7 7 5 5 5 5 4 5 5 5 5 6 6 8 9 8 7 8 10 13 11 11 10 8 7 8 11 13
5 5 6 8 9 8 7 7 7 7 6 7 7 8 8 8 7 6 4 5 5 5 5 5 4 6 6 5 7 10 10 10 11 9 8 6 9 7 7 7 7 6 6
7 7 7 8 8 6 6 5 6 6 7 7 7 7 7 7 6 5 4 4 5 5 4 4 5 6 6 5 6 10 11 11 8 5 5 6 8 8 8 7 8 8 9
8 9 9 8 8 8 9 8 8 9 8 6 5 4 4 4 4 5 6 5 5 6 4 4 4 6 6 6 4 6 9 10 11 10 8 6 6 7 9 9 10 11 11
10 11 12 11 11 11 9 8 7 6 5 4 3 2 2 3 5 5 4 4 3 4 3 3 4 5 6 6 6 5 6 9 10 10 10 10 10 9 9 9 11 10 11
13 13 13 14 13 12 9 9 8 7 6 4 3 2 2 1 3 5 4 4 3 3 3 3 4 5 5 6 6 6 7 7 9 11 11 11 11 10 10 10 10 9 10
13 13 13 14 12 11 10 9 8 8 5 3 2 3 4 2 2 5 5 4 3 3 3 3 3 4 4 5 5 5 6 7 8 10 12 12 13 13 12 10 10 10 9
Wind_Direction
143 129 152 154 154 144 130 113 107 111 117 118 120 125 121 116 119 122 124 120 117 112 105 101 101 94 83 74 70 65 58 48 27 15 4 10 70 110 269 299 277 229 118
135 133 147 149 150 143 130 119 115 112 112 112 115 115 114 118 122 124 126 127 129 129 125 117 107 100 90 82 73 58 44 33 15 358 327 251 167 147 273 299 319 94 140
141 132 150 151 147 141 134 132 130 126 122 119 117 117 118 121 123 123 130 139 141 135 124 115 100 83 74 63 55 45 36 25 7 336 284 256 130 120 183 305 11 79 153
145 143 144 152 149 151 151 151 146 139 132 125 121 122 124 122 120 124 140 138 113 70 60 66 79 86 82 71 61 55 44 30 3 300 257 326 93 109 115 108 114 164 183
140 140 123 151 149 154 154 151 147 141 133 129 128 127 127 126 127 127 124 91 67 67 68 69 75 83 87 84 82 71 48 21 321 280 7 29 21 96 93 80 75 132 225
137 137 120 151 149 156 155 156 152 143 140 138 140 137 138 137 134 130 118 96 89 85 82 88 95 93 91 88 75 55 32 356 293 264 97 116 61 76 63 49 48 52 87
139 136 133 145 142 153 155 158 150 140 142 149 150 149 149 151 140 127 113 99 94 94 98 102 101 97 91 80 66 48 20 320 287 339 45 163 94 92 77 67 60 51 49
144 140 131 135 139 142 145 148 145 143 149 152 152 151 148 150 143 133 120 114 117 119 116 113 115 113 99 78 48 16 349 314 285 345 300 70 70 59 55 47 58 61 50
149 140 140 137 136 127 125 129 136 142 147 147 154 158 151 148 146 143 135 125 117 112 108 104 104 98 83 47 23 6 349 302 289 317 264 82 70 40 27 8 7 19 0
137 130 133 139 140 133 129 134 138 137 136 141 152 152 146 154 153 152 163 117 111 123 122 98 70 60 69 72 44 352 280 250 264 116 145 68 47 10 347 328 318 314 308
148 145 144 145 145 145 132 139 141 135 138 151 160 155 187 184 168 153 98 81 88 105 107 89 76 75 232 196 173 231 258 264 154 76 77 74 37 347 320 306 291 285 286
157 164 171 164 164 155 143 149 157 153 167 164 166 168 198 135 82 62 101 107 118 133 143 141 179 232 241 226 191 209 252 333 350 74 84 79 20 336 324 310 294 282 279
148 181 185 173 178 165 153 161 161 161 163 161 170 183 168 181 176 199 171 179 176 182 193 188 200 235 292 303 308 311 316 291 335 281 99 98 331 293 291 283 273 264 257
146 161 166 190 182 179 155 179 153 165 169 171 158 181 185 203 186 208 188 142 202 189 211 222 229 227 257 265 277 287 288 301 312 311 112 111 49 309 290 281 277 265 240
138 124 159 186 174 173 186 165 158 158 183 161 177 187 221 220 184 199 149 252 289 283 267 276 279 254 261 250 258 268 273 280 286 290 305 115 98 317 295 278 281 282 273
144 138 135 175 175 182 190 168 163 176 153 190 196 181 218 262 257 273 240 251 301 329 341 343 342 318 304 304 288 286 297 289 295 307 297 182 117 99 337 304 257 261 269
130 106 131 170 176 183 182 172 183 176 188 188 151 88 351 318 342 285 305 4 34 29 4 352 320 311 308 321 312 304 288 296 308 306 301 297 240 178 165 221 244 227 225
119 94 94 156 166 180 180 172 162 130 131 96 100 80 49 43 26 356 55 53 22 17 11 3 352 336 329 328 318 307 308 295 277 267 257 256 264 255 208 197 196 216 248
127 88 83 138 159 160 139 127 111 112 98 89 82 78 67 58 46 38 41 43 12 21 21 360 357 349 327 314 309 299 293 288 286 279 282 273 267 264 260 204 188 188 217
117 90 93 117 120 121 128 131 118 105 90 77 68 73 73 67 61 57 69 41 19 22 25 8 348 335 317 317 304 296 287 274 273 274 267 258 251 249 245 247 217 202 189
133 108 110 117 134 150 153 142 123 114 111 102 88 75 71 65 56 39 39 37 12 17 10 353 336 307 296 304 302 289 274 262 251 248 265 269 267 254 241 243 249 259 239
139 123 119 125 135 144 128 107 111 109 89 77 77 74 72 71 63 56 20 354 354 327 296 314 319 302 291 291 298 305 291 280 258 291 315 290 283 286 281 272 272 286 285
143 125 121 119 117 109 109 111 111 116 122 121 112 118 103 82 44 19 358 346 325 294 326 336 330 320 322 313 311 299 312 316 334 307 291 299 327 313 307 303 286 280 281
144 135 130 124 115 110 116 121 130 128 127 135 150 140 126 41 356 357 357 4 349 330 21 360 16 336 336 325 325 310 308 308 307 310 321 315 303 289 293 296 285 283 281
149 140 132 124 116 113 118 125 131 127 135 152 146 186 247 31 14 4 22 25 6 354 38 15 3 349 335 335 326 327 318 308 301 295 292 291 290 286 280 278 280 284 279
142 134 125 119 120 125 131 134 127 120 121 133 86 319 329 3 36 47 18 27 0 342 347 332 342 338 340 329 325 315 312 316 313 306 304 301 296 293 293 291 286 280 278